Dewpoint
74 75 75 75 75 75 74 75 74 74 73 73 73 73 73 72 72 72 74 74 74 73 74 75 75 75 73 74 73 75 76 75 75 76 77 76 76 75 75 76 75 75 74 72 71 72 72 71 71 72 71 70 71 70 69 70 69 70 70 72 70 70 69 68 67 66 70 70 71 65 64 66 68 69 69 68 67 67 68 70 72 67 66 67 67
74 75 75 74 73 74 73 74 74 73 73 72 72 72 73 73 73 74 73 74 74 73 73 73 75 76 75 75 75 76 76 76 75 76 76 76 76 75 74 76 75 75 74 73 72 71 73 71 70 71 71 71 69 69 68 68 68 67 68 69 69 69 70 67 68 67 67 69 67 70 73 65 66 68 68 67 67 69 67 67 71 68 68 67 65
73 75 75 74 73 74 74 74 73 73 71 70 69 69 72 73 73 74 72 72 74 73 73 72 74 76 76 76 76 76 76 76 75 75 76 76 76 74 73 74 75 74 74 73 73 72 72 72 70 70 70 70 70 68 67 67 67 66 66 67 68 68 69 69 68 66 66 68 68 67 69 67 67 66 68 68 70 69 68 65 65 68 69 68 65
72 73 74 73 72 73 74 74 72 70 70 71 70 68 70 71 73 73 72 71 72 74 74 74 75 76 76 77 77 76 76 76 75 75 76 76 76 75 74 74 74 74 73 73 72 72 72 72 70 69 70 70 70 70 69 69 69 68 67 68 69 68 70 69 69 68 66 66 67 66 67 68 67 69 68 69 68 69 69 68 67 66 68 68 66
71 72 72 71 71 72 71 72 72 72 71 69 70 69 70 71 72 71 71 71 72 73 74 75 76 76 76 76 77 77 76 76 75 74 75 76 76 75 75 75 74 74 74 74 73 72 72 72 71 69 70 70 70 70 69 69 69 68 66 68 68 68 69 68 68 68 69 66 68 68 69 68 67 68 69 67 68 69 69 69 68 68 69 67 65
70 71 72 71 71 72 72 70 70 72 70 69 69 69 70 69 71 72 72 71 72 72 74 75 76 76 76 76 77 77 76 76 76 75 74 74 75 75 74 75 74 74 74 74 73 73 72 72 72 71 69 70 70 69 69 68 69 68 67 67 68 68 68 70 68 68 67 69 69 69 67 69 67 67 69 68 67 66 68 68 69 69 69 67 64
70 70 71 70 71 71 71 70 71 71 71 70 69 70 70 68 69 72 72 71 71 70 73 75 75 76 77 76 76 77 77 76 76 76 75 74 75 75 74 74 74 74 74 74 73 73 73 73 72 72 70 69 69 69 69 69 68 68 68 67 68 68 67 69 69 68 67 67 68 69 67 68 69 67 69 69 68 68 66 67 66 68 69 68 68
70 71 72 72 72 70 71 72 72 72 72 72 72 71 70 70 71 72 74 73 72 71 72 74 75 75 76 76 76 77 77 76 76 77 76 75 75 75 74 74 73 74 74 74 73 72 72 72 72 72 71 70 70 70 70 69 68 68 69 68 68 68 67 67 69 68 67 66 66 66 69 67 69 68 69 69 67 68 68 67 66 67 68 70 69
70 70 72 73 73 72 73 73 73 73 73 73 73 72 71 72 72 72 74 74 73 72 71 73 75 75 75 76 76 76 76 76 76 76 76 76 75 74 74 74 74 73 74 73 74 74 73 72 72 71 72 70 68 69 68 68 68 67 68 69 68 68 68 67 68 69 68 67 66 67 67 68 67 67 67 67 66 65 67 66 66 68 69 69 71
71 69 71 73 74 74 74 74 74 73 73 74 73 73 72 72 72 72 74 75 74 74 73 71 73 74 75 76 76 76 75 75 72 67 70 75 75 74 74 74 74 74 74 74 74 74 73 72 73 70 69 68 67 67 67 66 66 67 68 69 68 68 68 68 67 68 68 68 67 66 66 66 67 66 66 66 67 68 68 67 66 67 68 68 69
70 70 71 73 74 75 75 75 75 74 74 74 74 74 73 73 73 73 73 74 75 75 74 72 70 72 74 74 75 76 75 74 67 65 66 68 73 74 74 74 74 74 74 74 74 74 74 73 73 72 69 67 67 65 66 65 65 66 67 68 68 68 68 68 67 67 68 67 67 67 66 66 66 66 66 65 67 67 67 68 67 67 66 65 64
69 71 71 74 76 76 75 76 76 75 75 75 75 75 73 73 73 73 73 73 75 75 74 74 73 72 74 74 75 76 76 69 65 65 65 66 68 74 73 73 74 74 74 74 74 74 74 74 73 73 73 71 69 68 66 65 64 64 66 67 67 67 67 68 68 68 68 67 67 67 66 66 67 66 66 65 66 68 68 67 67 67 67 66 65
70 72 71 74 76 76 76 76 76 76 76 75 75 75 75 74 73 73 72 73 74 75 75 74 74 73 73 75 74 75 76 68 64 63 64 65 65 69 73 73 73 73 73 73 73 74 74 74 74 74 73 67 69 69 69 68 63 63 64 67 66 65 65 66 68 68 68 68 67 67 67 67 67 67 67 66 68 67 68 66 67 67 67 66 66
69 73 73 74 76 76 76 76 76 77 77 76 76 76 75 74 73 73 73 74 74 74 74 75 74 74 74 75 76 75 75 68 63 62 63 63 64 67 73 73 72 72 73 73 73 73 74 74 74 73 73 72 71 70 69 69 68 67 67 69 69 68 64 64 65 67 69 68 68 67 69 69 68 68 68 68 67 66 67 66 67 67 67 66 68
70 74 73 74 76 77 77 76 76 77 77 77 76 76 76 75 75 74 73 73 73 74 74 74 75 74 74 73 75 75 74 67 62 61 62 62 63 64 73 73 73 73 74 74 74 73 73 74 74 73 73 73 72 70 70 69 69 67 67 68 69 68 68 66 66 68 68 67 68 68 69 70 70 71 70 68 69 68 68 67 67 67 68 69 68
70 75 74 74 75 76 77 77 77 77 77 77 76 76 76 76 76 75 74 72 73 73 75 74 74 75 75 74 73 74 74 64 61 60 60 61 62 68 73 74 73 73 74 74 74 74 74 74 74 74 74 73 69 63 67 70 69 68 67 67 68 68 68 66 64 65 67 67 67 67 67 68 67 69 70 68 70 70 69 69 69 68 67 66 64
71 73 75 73 74 76 76 76 77 77 78 77 77 76 76 77 77 76 74 73 73 72 73 72 74 74 75 75 74 73 73 67 60 59 59 59 62 70 73 73 73 73 73 74 74 74 74 74 74 74 74 73 68 62 63 66 70 69 68 67 67 67 67 68 63 62 63 62 62 63 63 62 62 62 62 64 68 68 67 66 66 65 65 64 63
72 72 74 74 74 76 77 77 77 77 78 78 77 76 76 77 76 76 74 73 71 71 72 72 73 73 73 74 73 73 73 69 58 57 58 58 63 71 73 73 73 73 73 74 75 75 74 70 74 75 74 74 66 60 61 66 70 70 68 67 67 67 67 66 66 65 61 61 61 62 61 61 62 62 62 62 64 67 67 64 65 64 64 63 61
71 71 73 75 75 76 76 77 77 77 78 78 77 77 76 77 77 77 74 74 72 73 73 73 73 73 72 73 69 73 73 69 58 57 57 57 62 72 73 73 73 73 73 73 74 75 75 71 68 70 72 72 64 59 59 64 70 71 70 68 67 67 67 66 66 66 65 65 65 64 65 63 65 66 67 64 66 70 67 66 65 64 63 61 59
72 72 73 75 75 76 76 77 78 78 78 78 78 77 77 76 76 76 75 73 73 72 72 73 73 73 73 73 73 73 73 74 68 55 56 56 58 71 74 74 73 73 73 73 73 74 74 75 71 62 64 64 62 58 58 59 69 71 71 69 68 67 67 67 67 67 67 65 64 64 64 66 67 68 68 67 67 68 67 67 65 63 62 61 59
73 74 74 73 74 76 76 77 78 78 78 78 77 76 76 76 75 76 74 73 73 74 72 72 72 73 73 74 73 74 74 74 73 55 55 55 56 62 74 74 74 74 74 73 73 73 73 74 74 65 60 60 59 56 56 57 62 71 72 70 69 68 67 68 67 66 67 66 65 65 64 65 66 66 67 67 66 66 66 65 65 63 62 60 58
74 75 75 73 73 75 75 77 78 78 79 79 79 78 77 77 76 76 74 75 75 75 75 73 72 72 73 74 75 75 73 68 74 58 55 54 55 56 71 74 74 74 74 74 74 73 73 74 74 69 59 59 58 55 54 56 59 69 72 65 64 63 68 68 68 67 67 66 65 64 64 64 64 65 66 66 65 66 66 64 63 62 61 59 60
75 76 76 74 74 76 77 77 78 78 78 78 78 77 77 77 77 77 77 77 77 76 76 75 74 73 74 74 75 76 77 75 64 66 54 54 53 55 60 68 66 74 74 74 74 74 74 74 73 67 59 57 57 56 54 55 56 65 62 61 61 61 65 68 68 67 66 65 65 64 64 64 64 64 65 65 65 65 65 64 63 62 62 60 61
78 76 76 76 76 75 77 77 78 78 79 78 78 78 78 77 78 78 78 77 77 77 77 76 75 74 72 73 73 73 77 77 69 62 60 53 54 54 55 59 63 72 74 74 74 74 74 74 72 64 57 55 55 55 55 54 60 58 58 60 60 61 67 68 68 67 66 65 64 64 64 65 64 64 65 65 65 66 65 64 63 61 61 61 63
78 77 76 76 77 76 77 78 78 78 78 78 78 78 78 77 77 78 78 77 77 76 77 76 76 75 74 74 74 76 76 78 78 68 58 54 53 53 54 56 58 60 71 73 73 74 68 64 63 62 56 54 55 55 55 54 55 57 57 59 61 66 68 68 68 67 66 65 64 65 64 65 65 64 65 65 66 66 65 62 61 60 59 64 60
77 78 77 77 78 77 77 76 78 77 77 77 78 78 77 76 76 78 77 76 76 76 76 75 75 75 75 75 75 74 76 77 76 75 62 57 55 54 55 55 57 58 63 70 66 66 63 62 60 58 54 55 59 61 62 61 56 57 58 59 65 68 68 68 68 67 66 65 64 64 64 65 65 65 65 65 65 64 62 60 58 57 57 60 58
77 77 78 79 78 78 76 72 72 74 76 75 75 77 77 76 75 76 76 75 75 76 75 75 74 74 74 74 74 75 74 75 76 76 75 67 63 61 58 58 55 55 61 65 64 68 66 65 67 63 61 58 59 59 60 60 59 58 61 63 65 68 68 68 68 67 67 66 65 65 65 65 65 65 64 64 63 63 61 58 57 56 57 58 57
75 76 75 77 78 78 78 76 74 71 72 73 72 73 75 76 76 77 75 75 75 74 74 73 73 72 72 72 73 74 74 74 76 70 70 72 71 68 64 62 62 62 62 64 67 68 71 66 64 68 67 64 61 63 63 65 63 62 63 64 65 67 67 66 66 68 67 67 66 65 65 65 64 64 63 63 63 61 60 57 56 56 56 58 57
76 74 74 76 77 78 76 74 73 76 75 75 77 78 75 75 76 77 76 76 75 72 72 73 73 73 72 74 73 72 74 72 64 56 63 56 63 69 70 66 65 66 62 58 65 70 68 68 69 70 68 67 64 63 64 64 65 64 65 65 66 66 68 68 68 68 67 67 66 65 64 64 64 63 63 62 62 60 58 57 57 56 57 57 55
74 73 73 72 69 72 72 70 72 72 73 76 76 76 66 59 75 75 71 63 59 60 63 71 72 73 73 73 73 71 69 64 49 46 46 46 47 48 46 46 48 59 59 58 60 67 68 67 68 69 69 68 67 65 64 64 65 66 65 62 65 66 67 67 67 67 67 66 66 64 64 63 63 63 62 61 60 58 57 56 57 57 56 56 55
75 72 72 70 70 73 71 72 74 77 77 73 76 74 72 69 52 57 62 61 55 50 50 51 53 58 70 70 64 52 51 46 44 44 45 45 45 45 46 46 45 46 48 63 65 66 67 67 67 68 68 69 68 66 65 65 65 66 66 65 65 65 65 67 67 66 66 66 65 64 63 63 63 63 62 61 59 59 59 58 58 57 56 55 55
72 72 72 72 73 73 73 73 74 75 75 75 76 76 76 75 71 57 50 52 50 48 48 48 49 50 53 58 64 66 55 47 45 45 45 45 44 45 45 47 47 46 45 52 64 66 67 67 67 67 68 69 68 67 66 65 66 66 66 65 65 65 65 66 67 68 67 66 65 63 63 63 63 61 60 59 58 57 57 56 57 56 56 55 55
70 70 71 72 73 72 71 73 72 73 72 73 73 72 73 73 74 73 68 49 49 49 48 47 47 47 46 46 49 51 50 49 48 48 46 44 43 43 44 44 44 41 46 58 63 64 66 67 68 68 68 68 69 69 68 67 67 66 66 65 65 65 65 66 65 68 66 66 65 64 63 62 61 59 57 58 57 57 56 55 56 56 56 56 56
71 70 70 70 72 72 71 72 71 71 71 72 69 70 70 70 67 70 70 70 71 59 49 47 49 49 47 46 46 47 47 47 47 46 45 44 44 43 43 52 47 44 51 62 63 64 65 66 67 68 69 69 69 69 68 68 67 67 66 66 66 66 67 67 67 66 65 65 64 63 62 62 61 60 59 58 58 57 56 55 56 57 57 55 55
69 69 70 70 70 70 69 70 70 71 71 70 69 66 68 66 66 66 64 65 68 71 69 68 57 53 58 55 48 47 48 49 48 47 46 44 45 44 51 65 64 60 57 59 61 62 62 62 64 65 66 67 68 68 68 68 68 67 67 66 66 66 67 67 66 66 65 65 65 65 63 62 61 58 57 57 57 57 56 56 58 56 55 55 54
68 68 68 68 68 69 69 70 71 71 69 68 67 66 66 64 63 63 62 65 67 67 64 68 65 53 54 52 51 51 51 51 49 48 46 45 45 49 63 63 62 62 62 63 63 64 63 62 62 62 63 64 65 67 68 68 68 68 67 67 67 67 67 67 66 66 66 66 65 65 63 63 61 59 57 58 59 56 56 56 56 56 55 55 54
64 66 66 68 68 66 66 68 70 70 65 66 68 67 65 65 66 64 66 65 67 66 67 67 67 67 64 64 59 55 53 52 51 49 46 45 44 58 62 62 62 63 62 63 63 62 63 63 64 64 63 63 63 63 64 66 68 68 65 68 68 68 67 67 67 65 66 66 66 65 64 63 62 60 60 59 58 57 58 57 56 55 55 54 54
65 65 65 67 68 69 69 69 66 66 71 67 69 68 65 66 64 65 65 66 62 65 67 65 62 64 63 64 65 63 61 56 55 58 49 40 56 63 66 64 63 62 62 62 63 64 64 63 63 63 63 63 63 64 64 64 65 67 68 68 67 68 64 66 64 65 65 66 65 64 63 62 62 61 59 59 58 58 58 57 55 55 56 54 55
65 63 62 63 63 66 64 65 66 65 66 64 63 64 62 61 63 64 66 64 64 62 63 64 63 63 63 65 66 64 62 62 62 62 63 62 65 64 63 62 62 62 62 63 63 63 63 63 64 64 63 63 63 63 64 64 65 65 65 66 67 67 66 66 66 65 65 65 65 63 63 62 61 60 60 59 58 59 58 57 56 55 55 55 55
63 65 64 62 63 63 63 65 64 65 64 63 61 62 62 63 63 65 62 62 62 62 61 61 63 64 65 65 63 63 61 61 61 61 61 61 61 62 62 62 62 62 62 63 63 63 63 63 64 64 64 64 64 63 64 64 64 64 65 65 66 66 66 65 65 65 65 65 63 62 62 61 60 60 59 59 59 59 58 57 55 55 55 54 54
64 65 65 62 62 64 63 63 63 64 63 62 62 61 61 63 63 63 61 61 61 60 61 62 64 64 65 62 55 57 63 62 61 61 61 61 61 62 62 61 61 62 62 62 63 63 64 64 64 64 64 65 65 64 64 64 64 64 64 64 65 64 65 65 65 65 65 64 63 61 61 60 59 59 59 59 56 58 58 57 55 54 53 53 53
63 64 64 63 64 63 62 63 63 64 65 64 63 62 62 63 62 62 61 61 60 60 59 60 62 65 60 51 50 45 61 63 62 61 61 61 61 62 62 63 62 63 62 62 63 64 64 64 64 65 64 63 63 64 65 65 65 65 65 65 64 64 64 64 64 61 62 63 61 60 60 60 59 59 59 56 59 59 58 56 55 54 53 51 51
63 62 63 63 62 62 62 62 63 62 62 63 62 63 64 63 62 62 61 61 60 59 60 61 61 62 63 50 54 50 61 61 62 61 61 61 61 62 62 63 63 63 63 63 63 64 64 65 65 65 65 64 64 64 65 65 64 64 64 64 63 62 61 61 61 61 61 60 60 59 59 59 59 59 59 59 59 59 58 56 55 54 52 50 49
61 61 62 61 61 61 63 62 61 60 60 61 62 62 61 61 60 61 60 60 59 59 58 59 60 62 61 64 61 63 61 62 61 61 62 61 61 61 62 62 63 63 63 63 63 64 64 64 65 65 65 64 64 63 63 63 62 61 61 61 61 60 61 60 60 60 60 60 60 60 60 59 59 59 58 58 59 58 57 56 54 53 53 50 48
58 58 57 57 58 59 59 61 59 59 59 59 60 59 60 58 58 58 58 58 58 59 58 58 59 59 59 60 60 60 60 60 60 61 61 61 61 61 62 62 62 63 63 63 64 64 64 64 64 64 63 64 64 63 63 63 63 62 62 61 61 60 60 61 61 61 61 60 60 59 59 59 59 59 58 58 58 57 56 54 53 51 50 49 47
54 56 55 55 55 56 57 57 58 58 57 57 57 57 57 57 57 57 57 58 57 57 58 58 58 58 58 58 58 58 58 59 59 59 60 61 62 62 62 62 62 63 63 64 64 64 64 64 64 63 63 63 63 63 63 63 62 62 62 61 61 61 61 61 61 61 60 60 60 59 58 58 58 58 57 57 57 57 54 53 51 50 48 47 47
57 56 55 55 55 56 57 58 57 56 57 56 56 55 55 55 55 55 56 56 56 57 57 57 57 58 58 57 58 58 58 58 58 58 60 62 63 63 62 62 62 62 63 63 64 63 64 64 63 63 63 63 63 63 63 63 63 62 61 62 61 61 61 61 61 61 61 60 60 59 58 58 57 57 57 56 55 55 54 52 50 50 48 47 47
52 53 54 55 54 54 54 55 55 56 55 55 55 54 54 53 53 53 53 53 53 53 54 55 55 56 56 55 55 56 56 57 58 59 60 61 62 62 62 63 62 62 63 63 64 64 64 64 64 64 64 64 63 63 63 63 63 62 62 62 61 61 59 57 61 60 60 60 60 59 58 58 58 58 57 56 55 51 51 50 49 49 49 48 47
50 50 50 51 52 52 52 53 53 53 53 54 54 53 53 52 52 51 51 51 51 51 51 52 52 52 53 53 53 53 53 54 54 55 56 58 60 61 62 62 63 63 64 64 65 64 65 65 64 64 64 64 64 64 64 62 63 62 61 60 57 51 51 53 56 60 56 60 59 59 59 58 57 56 55 53 52 52 51 50 49 49 48 48 47
49 49 49 49 49 50 51 50 50 50 50 51 52 51 51 50 50 50 50 50 50 50 49 50 49 49 50 50 50 50 50 51 51 53 54 55 56 57 59 60 62 63 63 63 63 63 64 65 65 65 64 64 63 63 63 63 62 62 60 56 47 47 48 49 50 51 58 59 59 59 58 56 54 53 52 52 52 51 51 51 50 49 48 49 48
49 48 48 48 48 48 49 49 48 48 48 48 48 49 48 47 47 47 47 47 48 48 48 48 48 47 48 48 49 49 50 50 50 51 52 52 53 53 53 55 56 59 61 62 63 63 63 63 64 64 63 61 60 61 61 61 61 58 49 45 45 45 46 49 54 45 47 50 55 53 52 52 52 51 50 51 51 51 50 51 51 50 50 48 48